ECMWFNIL_prec_cthk_000.txt.gz
RH
22 21 21 24 25 23 21 21 20 18 18 20 20 21 21 23 25 28 30 30 30 32 32 32 33 35 36 36 36 37 41 44 42 40 40 43 48 53 53 48 45 48
22 23 24 25 25 24 23 22 20 20 21 22 21 20 21 24 28 33 34 34 35 35 35 35 35 37 38 38 38 39 43 45 45 44 42 41 45 49 46 42 40 45
19 21 24 26 26 25 25 23 23 23 24 24 24 22 23 25 29 34 36 37 37 38 37 37 37 38 37 38 41 43 46 47 49 50 48 44 42 43 43 42 43 44
18 19 23 26 27 25 24 24 26 26 25 26 26 25 25 27 30 34 37 38 38 39 39 36 36 35 35 38 43 47 48 49 52 55 55 53 48 46 48 49 47 45
17 19 22 25 26 26 26 27 27 26 25 26 25 25 26 28 33 37 38 37 37 39 38 35 35 35 37 41 44 47 50 51 52 55 57 58 56 53 51 52 52 49
17 19 22 24 26 26 28 28 27 24 24 24 23 26 29 31 34 36 36 37 37 38 37 36 38 38 39 44 47 50 53 52 52 56 60 61 60 60 57 55 55 53
20 22 24 26 27 28 29 30 28 26 25 25 24 27 31 33 34 35 37 38 39 40 37 35 41 42 40 44 50 53 53 53 56 61 67 67 65 66 66 62 60 56
20 22 24 26 28 30 32 31 31 30 29 29 29 31 33 34 35 37 39 39 39 42 38 35 40 44 43 45 47 48 53 59 61 62 67 71 71 71 71 69 65 60
20 22 24 27 29 31 32 32 33 33 33 33 32 33 34 35 36 39 41 41 38 39 39 39 40 43 45 46 44 45 53 61 63 62 66 71 73 74 74 73 68 64
22 25 26 28 29 31 31 32 33 34 35 35 35 35 35 36 37 39 43 43 39 38 41 43 41 42 44 44 43 44 50 57 60 62 67 71 72 74 77 78 73 69
26 28 28 28 29 30 30 31 33 36 38 37 35 35 35 35 36 39 44 46 42 40 42 42 41 41 42 42 43 43 44 49 55 60 67 72 72 73 80 82 78 75
29 29 28 28 28 29 30 32 35 39 40 37 35 33 33 34 36 41 48 49 45 42 42 41 42 41 41 42 44 45 44 46 49 55 64 69 69 73 82 85 83 81
31 29 29 29 28 29 31 34 38 41 42 42 41 36 33 34 37 41 47 51 50 47 44 42 43 42 41 41 44 46 47 47 47 53 60 61 65 75 83 85 85 87
32 29 29 28 29 31 34 38 41 44 45 45 43 37 32 35 39 41 43 48 52 51 46 44 45 47 45 43 45 47 48 46 47 53 57 59 66 78 82 82 86 91
32 29 28 29 32 35 38 41 44 46 45 43 40 35 31 35 41 43 43 47 51 53 50 47 48 50 49 46 46 47 47 47 46 49 55 61 69 75 77 80 87 93
34 31 30 32 37 40 42 44 46 47 45 41 40 37 35 36 40 43 46 50 52 53 51 48 49 49 47 47 47 46 45 45 43 46 55 66 71 71 74 81 89 94
35 33 32 35 39 41 42 45 47 45 43 42 42 40 40 41 42 43 48 52 52 50 47 48 51 48 43 44 45 43 43 42 40 46 58 69 72 71 75 83 90 94
36 35 36 38 39 40 44 47 47 44 41 42 42 39 40 43 45 47 51 52 51 51 50 50 51 45 39 40 41 39 38 38 39 47 59 68 71 71 76 85 90 93
37 37 37 39 40 42 44 46 46 44 44 43 42 40 41 45 48 49 50 49 48 52 54 54 52 48 42 39 38 36 35 35 38 46 56 65 69 68 73 84 91 93
36 36 37 38 40 43 45 46 46 46 44 44 42 41 42 46 48 48 47 45 47 54 55 52 51 49 44 40 36 34 35 35 36 42 52 61 68 69 70 79 88 90
37 38 39 40 43 44 46 47 48 46 45 45 45 45 46 47 47 48 47 47 52 55 54 51 51 48 42 38 35 34 35 35 34 39 48 57 64 69 70 73 79 84
40 41 42 44 45 46 48 49 48 46 44 45 46 47 47 47 48 49 50 54 60 61 55 50 50 47 42 39 36 34 34 34 35 39 46 54 61 66 69 70 73 80
40 41 42 43 45 48 49 47 45 45 44 46 49 50 51 50 49 50 55 59 64 67 67 63 56 48 45 43 41 37 33 33 36 40 47 57 62 62 66 69 71 75
42 44 44 43 45 47 46 45 45 46 46 47 49 52 56 58 56 57 63 66 63 62 66 68 66 60 53 49 46 42 36 34 38 43 50 59 62 59 62 67 70 72
47 50 49 48 47 45 45 45 45 45 45 45 46 49 55 58 57 60 68 70 67 65 62 62 67 67 59 52 50 47 43 41 44 48 52 57 57 54 57 63 66 69
52 54 53 53 51 50 50 46 42 41 43 45 46 48 51 53 52 57 66 67 65 68 68 67 68 66 58 55 54 51 50 50 51 52 54 57 56 53 54 58 61 64

ECMWFNIL_prec_cthk_003.txt.gz
RH
25 25 24 24 25 24 23 25 26 25 26 26 27 27 26 22 20 19 20 23 25 27 29 31 31 32 32 33 33 33 34 38 41 43 45 45 44 44 44 45 47 45
26 25 25 25 26 25 24 25 26 26 27 28 28 27 24 22 22 22 24 25 25 28 31 33 35 36 37 37 35 35 39 42 43 44 46 45 46 48 48 48 49 50
27 24 24 25 25 25 26 26 27 28 29 30 30 29 27 25 24 24 27 28 27 32 36 37 38 40 40 41 40 40 42 43 43 44 46 47 47 49 51 53 53 51
28 25 24 24 25 26 26 28 29 29 29 30 31 30 30 29 27 27 31 33 34 38 40 40 42 42 41 43 44 42 41 43 46 48 48 47 45 46 50 55 58 57
28 25 23 23 25 26 27 28 29 30 31 31 31 32 34 36 35 34 35 36 39 43 43 42 44 44 42 43 44 42 41 44 47 49 47 44 44 48 52 54 57 58
28 25 23 22 25 27 28 29 29 30 31 31 31 35 38 39 37 36 35 37 40 42 42 41 42 42 40 42 43 42 44 45 46 44 43 43 45 52 57 59 58 56
30 27 26 26 27 29 29 29 28 28 29 29 32 36 38 38 39 38 36 36 37 38 38 37 36 37 37 40 44 44 44 44 45 44 43 43 45 51 58 61 60 55
29 27 28 29 30 29 29 28 27 27 27 26 30 34 36 37 38 39 37 35 35 36 36 35 36 37 36 39 44 44 43 43 44 45 45 44 45 49 54 55 54 53
29 27 27 30 31 30 29 27 27 30 32 30 29 33 35 37 37 35 34 34 36 37 36 35 37 39 38 39 42 42 43 44 44 44 44 44 47 49 50 50 48 48
30 28 28 30 32 32 30 28 28 34 38 34 31 32 36 39 39 36 33 34 35 36 38 41 44 47 44 40 40 42 45 47 45 43 43 43 47 48 47 49 49 48
30 28 29 30 31 31 30 29 30 33 35 34 35 36 37 38 40 39 35 36 36 36 37 40 47 54 56 52 48 46 48 50 47 44 43 42 44 46 46 49 51 50
30 29 30 31 32 32 32 32 32 34 36 38 38 38 38 39 39 38 35 35 37 38 36 36 39 48 56 59 58 54 52 51 48 45 45 41 41 43 45 49 52 51
30 29 30 32 33 33 33 33 34 36 38 39 38 39 40 40 38 38 37 36 37 38 37 38 40 43 46 48 51 55 55 50 45 46 47 42 39 42 45 49 54 52
31 30 32 34 34 34 33 34 36 39 41 41 41 42 41 41 39 38 39 40 40 40 40 42 44 44 42 41 43 49 53 49 45 46 47 42 39 41 46 51 54 53
31 32 35 35 35 35 35 36 39 43 45 44 43 43 41 42 42 40 41 44 46 45 44 45 46 47 49 49 45 45 49 48 45 46 46 41 38 40 46 52 56 56
32 35 37 36 36 36 37 39 42 46 47 46 43 43 43 44 45 44 44 46 48 49 48 49 52 54 57 56 50 48 50 47 44 45 43 38 35 40 45 49 54 57
34 36 37 36 36 37 39 41 44 46 47 47 45 44 45 45 47 49 48 47 49 51 51 51 52 54 57 57 54 53 51 47 43 42 39 37 36 40 45 47 50 54
35 36 36 36 39 41 42 43 45 46 46 46 45 46 46 47 49 51 52 50 48 49 51 55 58 59 58 57 56 52 46 43 41 38 36 38 39 41 44 46 48 51
36 35 34 37 41 43 44 45 45 45 44 44 44 45 47 46 48 51 52 52 52 53 57 62 67 69 66 62 60 57 48 42 40 38 36 39 42 43 45 46 47 49
36 33 33 38 43 46 46 47 48 46 44 42 42 44 46 47 49 51 51 53 56 57 57 57 61 67 68 64 62 61 55 46 42 40 41 45 46 45 47 49 50 49
33 33 36 42 47 50 49 50 51 49 48 45 42 42 45 47 49 51 50 51 55 55 53 53 56 61 66 66 63 61 59 55 49 45 46 50 49 46 49 53 53 49
33 37 44 47 49 51 52 52 52 52 52 50 45 43 44 45 47 47 47 49 51 51 50 51 53 56 62 66 64 61 61 60 55 49 49 53 52 49 52 55 54 51
34 40 47 49 50 51 52 52 51 52 53 51 47 45 45 46 45 44 46 49 49 48 48 51 53 57 64 66 64 64 64 64 60 54 54 60 61 56 57 59 57 54
42 45 49 50 51 51 51 50 51 52 52 49 47 48 49 47 43 43 46 49 51 51 51 51 53 59 66 67 65 67 66 64 62 57 57 66 69 64 62 63 59 54
43 47 50 51 51 52 52 53 52 52 52 51 49 53 54 49 44 45 47 48 51 54 54 53 55 62 68 66 64 67 65 63 63 57 55 65 71 67 64 64 59 55
43 48 51 53 56 58 58 57 53 52 54 52 50 56 60 52 44 45 48 48 51 54 56 55 58 64 69 66 63 63 64 65 65 60 55 62 68 66 63 63 60 58

ECMWFNIL_prec_cthk_006.txt.gz
RH
30 29 24 21 21 20 17 18 21 23 22 22 24 27 26 23 20 20 20 20 21 22 24 27 28 28 31 33 34 34 34 34 37 38 39 41 43 44 44 42 42 43
32 31 25 20 20 21 20 22 24 22 22 24 26 27 25 23 23 24 23 21 21 22 24 26 28 30 34 36 37 38 37 36 37 38 40 42 43 43 44 43 43 43
34 33 29 26 25 25 23 22 21 21 24 27 27 27 27 27 28 26 23 22 24 25 28 29 31 35 37 37 37 39 39 37 37 40 43 44 43 44 45 46 47 47
36 34 32 29 27 23 20 19 21 25 27 27 27 28 28 28 28 26 24 25 27 30 33 35 37 38 39 39 38 39 39 39 39 42 45 44 42 42 42 43 45 47
37 36 33 30 28 24 20 19 23 26 26 26 26 26 27 27 27 27 27 27 29 32 35 38 38 37 38 39 39 38 38 38 39 41 43 42 41 40 42 43 44 45
36 34 31 30 29 24 20 21 24 24 24 25 25 25 26 26 26 27 29 29 28 29 33 36 38 38 39 40 41 41 40 40 41 42 41 40 39 41 42 42 42 43
38 33 30 31 32 28 24 23 22 21 23 24 25 27 29 29 31 32 33 33 31 31 32 33 35 40 44 44 45 46 45 43 44 45 44 42 43 44 42 42 41 42
43 38 34 35 37 35 30 25 22 22 23 24 26 29 31 33 36 37 37 37 36 36 33 31 34 39 44 47 50 52 51 47 46 48 47 46 47 47 44 44 44 43
47 43 39 38 39 37 32 27 25 24 24 26 29 31 33 34 36 37 38 38 38 37 35 34 35 37 41 44 48 51 53 51 50 50 49 49 49 47 44 44 43 41
47 43 40 40 40 38 33 29 25 25 27 30 31 32 33 34 36 36 36 37 37 36 35 36 37 38 39 40 40 43 47 49 49 49 51 52 52 49 45 42 42 40
46 44 43 41 41 38 33 29 26 27 30 30 31 31 32 34 36 36 37 38 37 36 35 36 38 40 41 41 41 41 43 44 44 45 47 50 53 52 47 44 46 43
46 45 44 43 42 39 33 29 28 29 31 31 31 32 33 33 35 36 37 38 37 36 36 37 39 41 44 46 46 46 45 44 43 44 45 47 52 55 51 48 48 44
45 46 44 43 42 39 33 30 30 31 31 29 29 30 31 33 34 37 38 39 38 38 38 40 42 44 47 48 48 47 46 46 48 51 52 52 53 54 52 48 44 42
45 44 42 42 41 37 33 32 32 31 30 27 28 30 31 33 35 37 38 38 38 38 40 42 44 47 49 51 50 47 46 47 50 54 56 54 53 52 50 46 43 41
43 42 41 42 39 35 33 33 32 33 32 30 33 35 35 36 37 37 37 38 37 38 41 43 45 48 52 55 55 53 51 50 49 47 48 50 51 49 44 43 44 44
40 42 42 40 35 33 33 33 31 32 33 35 38 40 40 40 39 38 37 37 38 39 41 43 46 48 51 54 57 55 53 51 47 43 46 49 50 48 44 43 46 47
40 42 41 36 32 31 32 31 30 33 35 38 42 44 44 43 41 40 38 37 39 41 42 44 45 45 47 48 51 52 51 49 48 46 50 54 53 51 49 47 47 49
42 41 38 33 32 32 31 31 32 35 39 43 47 48 48 46 43 41 41 40 41 42 42 42 42 41 41 42 44 46 48 50 50 49 52 57 55 53 52 51 51 53
40 39 36 33 33 34 34 34 36 39 44 48 49 51 52 49 44 42 42 42 43 43 42 41 39 37 37 39 41 42 46 49 50 51 56 61 59 58 59 57 55 57
37 37 35 32 34 37 38 39 40 43 48 50 51 53 54 51 46 43 43 43 43 43 41 41 40 38 37 39 41 43 46 48 49 52 60 64 62 62 63 62 61 64
37 36 36 35 36 39 40 40 42 46 50 52 53 57 58 52 47 46 46 46 45 43 42 42 42 41 41 40 41 44 47 47 49 55 62 64 63 62 62 60 61 68
36 36 39 40 40 41 41 42 46 50 52 53 55 61 61 53 47 48 48 47 47 47 45 45 46 46 46 44 44 48 51 49 49 57 63 63 63 62 60 58 58 65
37 38 41 42 41 40 42 46 49 51 53 55 58 63 61 52 48 50 50 47 47 49 49 49 51 53 51 49 50 53 54 52 53 59 63 63 64 64 61 60 61 64
38 39 39 40 39 40 43 47 48 50 53 56 62 66 61 52 51 53 51 48 48 48 48 48 51 54 54 54 55 57 55 54 56 61 62 62 64 65 63 62 64 63
40 39 39 40 41 42 45 48 48 49 52 57 64 66 59 52 54 54 50 49 49 49 51 53 55 59 61 61 62 62 58 55 58 62 63 64 67 67 63 62 61 60
41 39 40 41 42 44 48 49 49 49 53 60 64 63 56 53 57 58 53 50 51 54 60 66 69 71 72 70 68 65 60 58 61 64 65 66 68 67 63 60 58 57

ECMWFNIL_prec_cthk_009.txt.gz
RH
27 26 24 19 16 16 18 19 17 15 14 14 16 18 21 22 22 21 20 19 19 20 21 22 23 24 25 24 27 29 32 33 34 36 37 37 38 39 39 39 39 40
27 27 26 24 21 18 20 21 20 17 15 15 16 20 23 24 23 21 20 20 20 21 21 22 24 27 29 28 29 31 34 36 36 36 38 39 40 39 39 38 38 39
28 27 27 28 25 22 22 23 24 23 21 19 21 23 23 25 25 23 22 22 23 23 24 24 26 29 31 32 32 32 33 36 37 36 37 39 40 38 38 38 39 39
28 27 29 30 27 26 26 26 27 27 24 23 24 24 23 24 24 23 23 24 25 26 26 26 29 32 33 34 35 35 33 34 35 37 38 38 37 37 38 38 39 40
28 29 32 33 32 33 31 27 27 27 27 26 23 22 22 24 24 24 25 27 26 28 29 28 30 32 33 34 35 36 36 36 37 39 41 41 39 37 38 38 39 41
28 31 36 39 40 37 31 27 27 29 30 29 25 22 23 25 26 27 29 29 29 31 32 31 30 30 31 32 33 34 37 39 41 43 45 47 46 44 43 42 41 40
27 31 38 45 45 38 31 28 29 32 32 30 27 24 24 26 28 30 32 32 32 34 34 33 33 31 31 32 32 33 35 37 40 42 44 47 50 51 50 47 45 43
28 30 39 49 46 38 32 31 32 34 34 32 28 25 26 28 29 31 30 31 34 35 34 36 36 35 34 34 34 35 36 36 36 38 40 43 47 49 49 48 46 45
30 31 42 52 48 39 35 35 34 34 34 32 28 26 27 29 30 31 31 32 33 33 34 36 36 36 36 36 37 38 39 38 38 38 40 43 44 44 44 45 45 46
32 33 45 55 50 40 39 38 35 35 34 30 27 27 29 31 32 32 33 34 34 33 34 36 35 36 35 37 40 40 41 41 41 41 43 44 44 43 43 45 46 48
34 36 48 55 48 42 41 40 37 37 35 30 28 29 31 31 31 32 33 35 35 35 35 36 36 36 37 39 41 41 41 42 43 45 47 48 48 47 47 48 50 51
39 45 54 55 48 43 43 41 39 38 34 30 29 30 31 31 32 33 34 35 36 36 35 35 38 40 40 41 42 43 43 43 44 47 50 51 52 49 48 47 48 49
47 56 61 59 51 45 42 39 37 36 32 30 31 32 32 32 33 34 35 38 40 38 35 34 38 42 43 44 44 43 43 43 44 45 47 49 49 47 45 45 45 44
57 61 62 58 52 46 41 37 34 33 30 30 31 32 32 32 33 34 37 40 43 41 38 36 38 41 44 44 43 42 41 42 43 41 41 42 42 42 43 45 46 44
62 62 60 56 51 46 40 36 34 31 29 29 31 31 31 33 36 37 38 39 42 43 42 40 38 39 41 41 40 40 40 41 41 39 39 39 39 42 45 46 47 46
61 60 59 55 50 45 38 35 35 30 28 28 30 31 34 37 41 42 42 43 44 44 42 41 41 41 41 41 39 39 39 40 40 40 41 41 41 45 49 47 46 50
58 58 57 53 49 44 37 34 32 29 28 30 31 33 38 42 45 47 48 48 48 45 42 42 44 44 43 43 41 40 40 39 40 42 43 44 45 48 52 50 48 55
58 57 54 48 45 41 35 33 31 30 31 32 33 38 42 45 49 51 52 51 49 48 45 45 47 46 45 45 43 41 41 42 43 45 47 49 50 52 53 52 53 60
59 56 51 44 39 36 33 33 32 32 33 34 37 42 46 48 51 52 52 52 52 51 48 48 48 47 46 47 46 43 44 46 48 51 53 55 55 55 54 53 57 62
57 52 46 40 35 34 34 34 33 33 34 38 42 46 49 51 52 52 53 53 53 51 49 50 50 47 46 47 47 47 49 52 55 55 56 58 58 57 54 55 59 62
54 46 41 37 36 37 37 36 35 36 38 42 47 51 53 54 53 53 55 55 54 51 49 52 52 48 46 47 49 55 60 62 62 59 57 57 58 57 54 56 61 62
50 43 39 38 39 39 39 38 39 41 43 47 52 55 57 56 54 53 56 56 54 52 52 53 52 49 49 51 58 65 70 71 68 61 56 56 57 56 55 59 63 63
47 42 40 41 41 40 42 42 43 45 48 51 53 55 56 55 52 52 56 57 55 54 54 54 53 51 50 52 56 62 68 69 66 61 58 58 58 56 57 61 65 65
49 45 43 42 42 42 44 47 49 51 52 53 53 52 51 50 50 52 57 59 57 55 54 54 53 50 46 46 46 50 57 60 60 61 61 61 61 60 60 63 66 65
53 50 47 47 47 48 50 54 56 57 57 55 52 50 49 50 51 54 59 62 59 54 52 53 52 47 43 44 45 45 48 52 56 60 62 63 65 64 62 64 64 63
55 55 55 54 55 56 58 60 61 61 61 57 54 53 52 53 57 61 64 62 56 51 51 52 49 44 41 42 44 44 47 50 55 59 61 65 69 67 65 65 64 61

ECMWFNIL_prec_cthk_015.txt.gz
RH
38 37 32 27 25 25 27 29 32 35 34 30 30 31 30 28 28 27 24 22 20 20 21 21 22 23 23 24 23 24 25 25 25 26 27 27 28 29 29 30 32 32
37 38 35 29 25 25 26 25 27 32 34 33 32 32 31 30 29 27 22 19 19 20 21 21 22 22 22 24 25 26 27 26 25 26 27 28 29 30 31 32 33 35
34 35 35 31 26 25 26 24 25 28 32 34 34 34 34 34 31 27 23 20 20 20 21 21 20 21 22 23 25 27 28 29 28 29 29 30 31 32 33 34 35 36
34 35 36 33 29 27 27 27 26 27 30 33 35 37 40 39 33 27 23 21 21 21 20 21 22 23 24 24 26 27 28 29 30 31 32 33 34 36 36 36 36 36
38 37 36 36 33 30 30 30 29 30 31 33 36 41 46 44 35 27 24 23 23 23 23 24 26 27 27 28 29 29 30 31 32 33 34 35 37 38 39 40 40 40
47 43 39 38 36 33 33 34 34 33 34 35 38 45 50 48 37 27 25 26 26 26 27 28 29 29 30 31 31 32 33 34 35 36 37 37 37 37 38 40 42 43
52 50 45 42 40 38 36 37 38 37 38 39 39 45 52 50 40 31 28 28 28 29 30 30 31 31 31 31 32 33 35 37 37 37 38 37 37 37 38 39 41 43
55 56 53 49 46 44 40 40 41 41 43 43 42 46 54 53 45 36 31 29 30 30 30 31 31 32 32 32 33 34 37 39 38 37 37 37 37 37 38 39 40 41
57 58 59 57 53 49 44 40 41 44 46 47 48 53 58 56 47 38 32 31 31 31 31 32 33 33 33 33 33 34 37 39 39 39 37 36 35 35 37 38 39 39
61 61 63 64 59 53 47 41 42 45 48 52 59 63 61 56 48 40 34 33 33 32 33 34 36 36 35 34 34 35 37 38 40 40 38 36 35 35 36 38 39 38
65 64 64 66 63 56 50 45 44 46 50 58 66 69 63 55 48 42 36 34 33 33 34 35 37 37 36 35 36 36 37 37 39 40 39 37 36 36 36 38 39 39
67 64 61 65 68 62 54 50 50 52 56 64 70 70 62 53 47 42 37 34 33 33 34 35 35 36 36 36 37 37 36 37 40 41 40 39 38 36 37 37 40 42
70 69 67 69 72 68 62 58 56 57 62 69 72 67 57 49 45 42 37 35 34 35 35 34 34 35 36 37 37 37 37 39 41 43 42 41 39 38 37 38 42 45
71 73 73 75 76 72 68 66 62 61 66 71 71 63 51 45 45 42 38 36 35 36 35 34 34 36 38 39 39 39 40 40 41 43 43 42 40 38 38 39 42 46
69 75 74 74 77 75 73 72 68 68 70 69 65 57 47 45 47 44 40 38 37 38 38 38 38 40 41 41 41 41 41 41 41 43 44 43 40 38 39 41 41 44
65 76 74 72 74 74 76 77 73 70 69 65 61 54 47 49 50 45 42 40 40 42 42 43 45 45 44 44 44 44 44 44 45 46 45 42 38 38 41 42 41 42
69 75 73 72 75 76 78 78 74 69 64 61 62 58 52 51 50 46 43 43 43 44 44 46 48 47 47 48 48 48 47 46 47 48 45 40 36 38 40 41 41 42
73 73 68 65 67 71 74 75 72 66 61 61 64 63 57 53 49 45 44 44 43 43 44 46 46 46 49 51 50 48 47 46 47 48 43 38 35 37 39 40 40 41
72 70 66 61 60 63 68 71 68 63 62 64 66 62 57 51 47 45 46 46 45 45 46 48 48 50 53 54 51 49 48 46 45 43 39 36 35 35 36 38 39 40
70 64 62 62 62 63 66 68 65 62 65 66 64 60 55 49 46 47 48 48 47 49 51 52 54 56 57 57 57 55 50 45 42 39 36 35 35 35 35 36 37 40
67 63 59 59 63 70 74 75 67 61 62 63 60 58 52 47 47 49 50 51 52 53 54 55 56 57 59 61 62 56 49 44 40 37 36 35 35 34 33 34 36 41
64 65 63 63 70 77 79 74 64 57 58 59 57 55 51 48 49 51 52 55 56 55 56 58 60 63 64 63 58 51 45 41 38 36 36 36 36 35 32 33 37 42
61 61 63 70 77 79 76 68 59 56 57 57 55 54 53 52 52 53 55 56 55 55 58 62 68 70 65 55 49 44 40 39 39 38 37 36 37 36 34 35 40 46
57 57 63 71 74 75 75 67 57 53 55 54 53 54 55 55 56 57 57 56 55 56 62 70 75 70 57 48 44 42 40 42 44 40 37 37 37 36 36 39 45 51
56 58 65 70 69 72 73 64 53 51 52 54 55 57 60 61 61 62 63 61 59 63 73 81 76 60 47 44 45 42 42 44 44 39 37 37 35 35 39 45 50 53
53 58 66 69 67 68 66 59 55 55 56 58 61 63 66 66 64 64 63 62 66 75 81 78 64 50 44 45 46 43 42 41 39 37 36 35 35 38 44 49 52 55

ECMWFNIL_prec_cthk_021.txt.gz
RH
32 34 35 35 33 31 32 34 37 37 36 34 34 33 33 33 35 35 34 34 36 38 37 32 26 24 25 25 23 22 22 22 23 24 25 25 26 28 29 30 32 33
33 35 37 36 34 33 33 34 37 40 40 40 38 37 38 39 39 37 34 35 37 39 39 36 31 27 25 26 26 25 24 24 25 26 27 27 28 29 30 31 33 34
33 36 38 38 37 38 38 41 44 45 47 47 45 43 42 43 44 42 38 37 39 42 41 39 35 29 26 26 28 29 28 26 27 28 29 29 29 30 31 32 33 34
36 38 39 39 40 42 43 45 47 49 51 51 48 46 46 44 45 47 47 45 45 48 48 44 38 33 28 27 30 33 32 30 30 31 31 31 30 30 31 32 33 34
36 37 38 40 42 43 44 44 45 47 49 49 47 48 49 47 45 46 48 51 51 53 55 51 45 38 32 30 33 37 38 36 34 34 34 33 32 32 33 33 34 34
34 35 37 40 43 44 44 44 44 44 45 47 47 47 49 51 51 50 50 52 54 57 57 56 53 48 39 35 38 41 43 42 40 37 37 36 36 36 36 36 37 37
34 35 36 40 43 44 44 44 44 45 46 47 47 46 47 51 54 56 58 58 58 60 59 56 56 55 49 42 41 45 46 46 43 41 41 41 40 39 39 39 40 40
36 35 36 40 44 45 44 45 45 46 48 49 48 48 48 50 55 60 64 63 62 64 65 61 57 57 55 49 45 48 48 47 45 44 45 45 43 41 41 42 42 42
38 36 36 40 45 46 46 46 45 46 50 53 53 53 51 53 58 63 66 65 65 66 69 68 61 58 59 56 51 50 48 47 47 48 49 48 45 43 43 43 44 43
40 40 38 38 42 46 47 49 50 52 55 58 57 55 54 56 59 65 69 68 69 69 70 71 65 60 62 61 55 52 49 48 49 49 51 50 48 45 43 43 43 43
42 43 41 39 42 45 47 50 55 56 54 54 51 49 53 57 58 63 68 68 70 71 71 72 66 59 61 62 58 55 51 51 52 51 51 52 49 45 42 42 42 41
45 44 42 43 47 47 45 48 53 54 51 50 47 45 51 59 59 59 61 65 73 75 70 69 66 61 61 62 60 57 53 53 55 55 53 52 49 45 43 43 43 41
47 45 43 45 52 52 48 49 53 55 54 51 49 49 55 62 62 60 60 65 76 78 69 66 68 65 62 62 61 59 55 55 58 57 54 52 49 47 45 46 46 45
46 47 47 51 58 59 56 54 55 56 56 53 53 54 57 63 65 63 62 68 76 76 68 66 69 66 60 58 60 60 59 58 58 56 53 51 50 49 49 50 51 50
47 48 52 59 65 67 64 62 60 61 60 58 57 60 63 68 69 64 64 71 75 72 67 67 69 63 57 58 60 60 60 58 55 54 52 51 51 52 53 55 55 53
49 50 54 60 65 68 70 70 68 67 67 64 59 63 70 72 69 64 66 72 74 68 66 68 66 60 59 60 59 59 59 56 53 52 52 52 54 56 58 59 59 55
49 51 53 56 60 64 68 70 68 66 68 68 63 66 72 70 65 63 66 72 73 68 66 68 65 61 62 61 58 58 59 55 54 54 54 54 56 58 61 62 59 54
49 51 53 55 58 60 63 66 68 68 68 69 70 73 73 67 62 64 69 72 72 69 68 68 66 64 63 59 56 59 59 56 56 57 57 59 61 63 65 65 60 54
44 46 48 50 52 55 57 58 64 68 67 70 76 78 71 62 60 66 72 72 71 69 68 67 64 59 57 55 55 58 59 58 59 60 62 65 68 70 71 68 61 54
40 41 43 45 46 50 52 53 57 63 65 71 78 76 68 62 61 66 69 69 69 69 68 66 60 54 52 53 55 58 60 62 62 64 67 71 73 75 75 70 62 53
42 42 44 45 46 48 50 52 57 61 64 69 72 70 67 64 62 62 63 64 67 67 66 63 56 51 52 54 56 60 63 64 66 69 72 75 77 77 74 69 63 55
43 44 45 45 47 48 50 54 59 61 63 66 66 64 65 63 61 60 59 59 61 62 60 56 51 50 54 57 59 63 66 67 72 75 75 76 79 80 77 74 69 59
44 45 47 47 47 49 51 55 60 63 65 64 62 61 61 60 59 59 59 57 58 58 55 52 51 52 55 58 62 66 69 72 74 75 75 75 78 80 81 80 74 60
46 47 48 49 49 50 52 54 58 63 65 63 60 58 57 56 56 59 61 60 58 58 55 51 52 54 56 60 65 69 73 75 72 71 73 74 76 80 82 80 72 58
48 49 49 50 50 52 53 54 56 60 62 61 59 56 55 56 57 60 63 61 58 59 57 53 53 56 59 64 68 72 76 75 73 75 78 78 79 81 81 77 67 52
48 49 49 49 50 52 55 56 57 58 58 58 58 57 57 59 61 62 62 61 60 61 58 56 57 60 63 68 73 76 79 76 74 79 85 85 83 81 78 72 61 48

ECMWFNIL_prec_cthk_024.txt.gz
RH
38 36 34 34 35 34 35 34 33 34 38 41 44 47 45 45 45 45 44 43 41 41 45 50 50 45 44 46 43 35 28 27 30 31 29 29 30 29 30 29 30 30
37 35 34 36 38 39 38 36 35 37 40 42 43 45 46 46 47 47 46 45 43 43 46 50 53 53 53 56 55 47 38 34 35 35 33 33 33 32 31 31 32 33
37 34 35 38 41 42 41 41 42 43 44 45 43 45 47 49 52 52 51 49 50 51 51 53 56 57 58 59 59 56 51 45 41 39 37 36 38 38 37 35 37 39
36 35 36 39 41 43 43 44 47 47 47 48 46 46 50 54 56 56 54 53 55 54 53 54 58 60 62 60 59 59 58 52 46 42 39 39 41 42 40 38 37 37
37 37 38 38 40 43 44 46 48 49 49 51 48 48 55 60 59 59 59 58 57 56 57 59 62 65 65 61 57 58 60 57 52 48 44 40 42 46 48 45 41 39
38 39 38 38 40 43 45 46 48 49 50 50 48 48 56 61 62 64 63 59 58 59 61 62 66 69 68 65 63 62 62 61 57 52 48 44 45 53 57 54 50 45
40 40 39 40 41 44 46 47 47 47 47 48 48 49 53 57 61 64 60 54 56 62 65 66 67 69 70 70 69 68 67 64 58 52 48 47 51 55 57 56 53 47
42 42 42 42 42 43 45 47 49 48 46 47 49 50 53 55 57 59 55 50 54 61 65 65 65 66 69 70 69 71 70 65 59 54 52 53 57 55 52 52 52 49
44 45 46 44 43 44 44 47 50 49 47 48 50 52 54 54 54 55 51 49 53 57 59 60 61 63 68 69 70 72 70 64 59 59 58 59 60 57 52 53 53 50
47 49 49 47 46 45 44 45 46 46 47 50 52 54 56 53 51 51 49 49 53 57 57 56 58 61 65 69 72 73 69 63 60 61 62 61 60 56 54 55 56 53
48 49 50 50 50 47 47 47 44 44 47 50 53 55 54 50 47 48 48 50 54 56 54 51 52 56 61 67 72 74 71 64 60 61 62 61 59 57 55 57 59 57
47 48 49 51 51 50 52 52 48 45 46 48 52 54 51 47 46 46 47 51 56 59 58 52 50 53 58 64 71 76 74 67 62 61 61 60 58 57 57 61 61 58
46 48 49 51 52 53 54 55 53 49 46 46 50 51 50 48 47 46 47 50 55 61 62 57 53 54 57 62 71 77 75 69 66 65 63 60 59 58 61 64 63 60
46 48 49 51 52 52 53 55 56 54 50 51 55 55 53 53 52 47 46 48 51 56 56 55 56 59 60 64 73 78 75 71 69 68 65 61 59 60 64 65 62 61
46 47 48 51 53 51 51 56 60 62 61 58 57 58 59 58 55 49 47 52 54 53 49 49 54 59 62 66 71 74 74 72 68 67 65 60 58 62 66 65 62 60
46 47 49 52 55 53 53 57 61 66 69 64 56 55 57 57 56 55 56 59 59 53 47 47 52 58 64 69 72 72 73 70 64 63 61 57 57 61 64 65 63 63
45 47 49 53 56 55 54 55 57 59 63 63 57 53 53 56 60 64 62 59 57 51 47 50 56 64 72 76 75 74 72 65 59 59 59 57 57 60 63 65 65 65
47 48 51 55 56 54 54 55 56 56 57 56 55 53 53 55 62 66 61 57 55 51 50 54 60 70 79 79 76 76 71 62 57 59 59 57 57 61 64 67 68 67
48 48 52 55 53 50 50 50 50 52 53 51 49 49 47 46 54 61 58 53 51 51 56 61 66 75 81 78 76 77 70 61 58 59 57 56 60 64 68 70 71 69
46 46 50 53 51 48 47 46 47 49 51 50 49 50 47 43 49 58 59 54 53 55 61 66 71 78 80 75 75 74 67 62 61 57 53 55 60 66 70 72 72 72
43 45 51 54 52 51 50 48 48 50 52 53 53 52 49 47 51 58 59 58 56 59 63 67 72 78 76 72 72 69 65 65 63 56 53 57 61 65 69 72 74 76
43 47 54 57 55 54 53 50 48 50 52 53 53 52 50 51 56 60 61 60 58 61 67 70 74 76 71 68 67 65 65 65 62 56 56 60 63 66 70 73 77 80
46 50 56 58 57 55 54 52 50 50 52 52 52 52 51 55 61 63 62 60 60 66 72 74 76 75 70 67 66 63 64 64 60 58 59 63 66 68 71 75 79 81
50 56 59 60 59 57 55 54 52 51 51 51 51 51 53 57 61 61 60 60 64 71 75 76 78 76 71 67 64 59 59 61 60 61 64 67 69 71 74 79 80 81
53 59 61 60 60 58 56 54 52 51 51 50 50 51 53 56 58 58 59 63 69 73 74 76 78 74 70 69 63 56 56 59 61 65 68 70 73 78 82 83 82 81
54 58 61 61 61 59 56 53 51 51 52 51 50 50 52 55 57 59 61 64 69 72 73 74 73 70 70 71 65 58 58 61 64 68 70 72 76 81 83 82 81 81

ECMWFNIL_prec_cthk_027.txt.gz
RH
32 33 33 35 35 32 32 37 41 41 40 42 45 46 47 49 50 50 52 54 56 57 59 57 58 62 65 63 55 50 52 53 56 59 58 55 51 47 44 38 35 37
32 33 33 35 36 33 33 36 42 43 42 42 46 50 50 51 52 53 55 58 59 61 62 61 61 61 63 64 60 56 55 53 56 63 64 61 58 54 51 47 41 41
34 33 33 36 36 34 33 36 40 41 42 42 44 48 51 53 53 53 55 60 62 62 61 61 60 56 57 62 64 65 66 61 61 69 72 72 68 62 59 56 50 47
35 34 34 36 37 36 35 36 38 40 42 44 45 47 52 56 54 51 54 57 57 57 58 59 60 55 54 62 65 66 69 68 67 72 78 78 71 62 57 56 55 55
33 33 34 36 36 38 38 37 37 39 42 45 47 50 54 56 53 50 52 53 51 53 55 56 58 56 55 61 64 63 66 67 67 71 74 74 70 63 55 52 55 55
33 34 35 37 36 38 39 38 38 39 41 43 48 53 54 52 49 50 52 52 50 52 54 51 52 55 55 57 60 60 61 62 65 70 70 70 71 68 61 55 53 50
35 36 37 37 37 37 38 40 40 41 43 45 48 52 52 48 47 48 48 48 50 53 53 49 50 53 53 53 55 57 58 59 62 67 69 69 68 66 64 59 53 49
37 38 37 36 37 37 39 42 43 44 46 47 49 50 50 47 47 47 46 47 49 49 48 47 49 54 54 53 53 54 56 58 60 64 69 69 67 65 63 59 53 51
36 37 37 37 38 39 42 44 45 45 45 45 46 47 47 46 46 48 48 47 45 44 44 46 51 56 55 51 51 53 55 56 58 63 70 72 71 68 63 59 55 52
35 37 39 40 42 43 45 47 48 49 46 43 44 44 42 43 46 47 47 44 41 40 43 46 50 55 56 51 50 52 54 54 56 60 68 74 76 71 66 65 60 55
37 40 42 45 46 47 48 49 51 52 49 46 46 44 40 40 44 46 45 43 41 40 41 42 46 52 53 49 48 50 52 54 55 57 64 73 76 70 65 65 64 60
40 43 45 46 47 49 51 52 50 49 49 49 46 42 40 41 41 42 45 45 42 40 39 40 44 48 47 44 44 45 48 51 54 55 59 67 74 72 66 67 69 66
41 43 45 46 48 49 51 52 49 47 51 52 46 42 43 44 43 44 46 47 46 43 41 41 44 46 45 43 43 43 44 49 54 56 59 65 70 71 70 71 73 70
43 44 46 48 49 49 51 51 48 49 54 55 50 47 46 46 46 47 47 48 49 45 41 39 41 42 43 44 45 44 44 48 54 58 60 65 68 67 69 73 71 67
46 48 49 51 52 52 53 52 49 50 55 55 51 50 50 49 49 49 48 49 51 48 42 37 36 37 40 43 46 47 47 48 55 62 65 69 72 70 70 72 68 64
48 52 54 54 55 54 54 56 53 51 53 54 53 52 53 53 52 51 52 54 56 53 46 37 33 35 40 45 48 50 50 50 55 64 73 78 78 72 68 66 65 63
49 53 55 54 55 55 54 56 56 54 54 56 58 58 57 56 55 55 58 60 60 58 52 43 36 36 40 46 50 53 53 53 56 68 80 83 78 71 65 62 62 63
49 53 55 54 54 54 53 54 57 59 58 58 59 58 56 56 56 57 60 62 60 59 55 47 42 42 46 49 51 55 56 55 58 70 82 84 77 72 67 65 66 64
49 52 54 54 54 54 56 57 59 60 58 55 55 54 54 54 53 54 57 58 56 54 52 47 44 49 56 55 53 57 61 58 62 73 81 80 74 71 69 68 68 64
49 51 53 55 56 56 57 58 58 57 56 55 56 56 56 55 54 54 55 54 52 51 51 49 45 51 61 60 56 62 65 63 66 76 82 77 71 70 71 70 70 69
50 53 55 56 57 57 56 55 55 57 58 58 59 58 57 56 56 55 53 51 49 49 52 50 49 56 66 63 59 63 67 67 70 76 79 75 68 67 69 72 75 72
51 55 56 56 55 55 56 57 58 60 60 60 60 59 57 56 55 53 50 48 46 47 50 51 54 62 68 63 60 64 68 70 71 72 73 73 69 66 67 73 75 67
50 53 54 54 54 56 58 60 61 61 61 61 61 60 56 55 53 50 46 45 44 44 46 49 54 59 61 60 61 64 67 69 70 69 69 71 69 64 64 71 72 63
45 47 49 53 55 57 60 62 63 62 61 61 61 59 56 54 52 48 46 46 47 46 46 49 53 57 58 59 62 64 67 68 67 65 65 65 64 63 66 71 71 64
41 43 47 52 56 60 62 64 64 64 62 61 60 58 56 54 51 48 47 48 49 50 49 50 53 55 58 61 64 67 67 66 64 63 64 62 61 63 68 71 68 64
40 43 48 53 58 62 63 63 63 64 64 62 58 56 55 52 50 49 49 50 52 53 53 53 55 58 61 65 69 71 68 66 65 64 64 63 62 65 70 71 67 65

ECMWFNIL_prec_cthk_030.txt.gz
RH
27 27 28 30 31 31 31 32 34 33 32 32 33 33 33 37 44 48 49 48 49 51 50 47 43 44 50 56 60 63 60 55 59 63 62 60 58 62 72 76 75 73
31 30 31 32 32 31 30 32 34 32 32 34 36 36 36 40 45 49 49 48 49 51 48 43 41 43 49 53 54 55 54 54 60 65 63 61 61 63 70 74 73 69
33 33 34 35 35 32 31 32 34 34 33 36 38 39 41 44 47 49 49 48 48 48 46 43 43 45 48 51 51 51 53 54 56 61 61 60 62 64 68 73 73 68
34 36 36 37 36 34 31 32 35 35 36 37 38 41 45 46 47 49 49 48 47 46 46 44 45 46 47 49 50 50 52 53 53 56 56 57 60 65 68 72 74 69
34 35 36 36 36 33 31 32 34 36 37 37 38 42 46 48 49 49 49 49 47 46 46 46 45 46 46 48 50 51 52 53 54 53 53 54 58 62 66 69 69 66
30 31 32 33 33 32 31 32 34 34 35 36 39 44 47 47 49 49 48 49 47 46 47 47 46 46 46 47 50 52 53 55 55 53 52 53 55 58 62 65 66 65
28 28 29 31 32 32 32 33 33 33 34 36 39 43 44 44 44 45 44 45 45 45 46 45 44 44 44 45 47 49 51 54 55 54 54 54 54 55 57 61 65 66
27 28 29 31 32 33 34 35 34 33 34 36 39 42 43 42 41 41 41 41 42 42 42 40 38 38 40 43 46 48 49 54 57 55 55 53 52 53 54 57 64 67
29 30 30 31 33 34 35 35 36 36 36 38 40 43 43 42 41 40 39 38 39 38 37 35 33 34 37 42 47 49 50 52 54 53 53 53 49 50 52 55 61 64
31 33 32 32 33 34 36 37 39 40 40 41 43 44 44 41 40 40 40 40 40 39 37 34 34 34 36 41 47 49 49 48 47 47 49 51 50 49 51 54 59 62
32 34 34 34 34 35 36 38 41 43 43 44 45 47 47 44 43 44 45 45 44 43 40 37 35 34 34 38 42 45 46 44 42 42 45 48 52 52 50 51 57 61
34 35 35 34 35 36 38 40 44 47 48 48 48 49 51 50 47 47 48 49 49 47 44 40 37 34 32 33 37 42 44 43 40 39 41 44 50 53 51 49 54 60
35 36 35 34 35 37 41 45 47 49 51 52 51 50 52 52 49 49 51 53 53 52 51 48 44 40 35 32 35 39 43 43 40 38 37 38 44 50 52 50 52 58
34 35 35 36 36 38 42 45 48 49 50 52 53 52 53 54 52 52 53 54 55 55 55 54 52 49 43 38 38 41 44 44 41 38 35 35 40 49 54 54 54 58
33 34 35 37 38 39 41 44 47 50 50 52 54 54 55 57 56 55 54 54 55 57 57 57 56 55 50 47 47 46 46 45 41 36 35 36 43 51 55 57 60 61
34 35 36 37 38 40 42 45 47 50 52 52 53 54 56 57 57 56 57 57 56 58 60 58 57 58 55 54 56 53 50 48 42 37 39 43 48 54 57 60 65 68
36 36 37 38 40 41 43 46 48 50 52 53 54 54 54 55 57 58 59 57 55 56 58 56 56 58 56 55 58 58 53 50 45 44 49 51 55 59 61 64 70 72
37 37 39 40 41 42 44 47 49 51 53 54 54 53 54 57 60 60 57 54 53 54 55 54 52 54 53 53 55 54 50 45 45 52 59 60 62 64 63 70 78 75
37 38 40 42 43 44 46 48 51 52 52 54 54 55 58 59 60 59 57 56 54 54 54 53 51 50 50 52 52 49 48 47 49 57 62 62 63 64 66 76 81 73
38 39 41 43 44 45 48 50 51 53 54 55 56 58 58 59 60 60 61 60 57 55 53 52 52 49 48 51 51 47 47 49 54 59 62 61 63 65 69 77 77 70
39 40 41 43 44 46 50 51 52 54 56 58 59 58 58 60 62 62 63 62 59 56 53 52 52 50 47 49 51 47 45 49 57 60 61 61 64 66 70 77 77 73
40 40 41 43 46 48 50 52 54 56 59 60 59 59 60 62 64 64 64 63 60 56 53 52 52 51 50 50 50 47 45 50 56 58 60 63 66 67 70 75 76 74
42 42 43 46 48 50 51 53 57 58 59 59 60 61 63 64 65 65 64 62 60 57 54 53 52 51 51 52 51 46 45 50 53 54 59 63 65 66 70 72 72 71
45 45 47 49 50 50 52 56 58 58 58 60 62 63 64 65 65 65 63 61 61 59 56 53 51 50 50 50 49 45 45 50 53 53 56 62 64 65 67 70 72 71
48 49 51 51 50 51 54 57 57 57 59 61 64 65 66 66 66 66 63 62 60 59 57 54 52 51 50 50 50 49 48 51 54 54 56 61 65 64 65 68 69 68
51 52 50 50 52 54 57 57 54 54 57 61 64 66 67 66 66 66 64 62 60 58 58 56 54 53 53 53 53 52 51 53 56 57 59 63 65 63 64 67 67 65

ECMWFNIL_prec_cthk_033.txt.gz
RH
24 24 24 23 25 27 29 31 32 32 31 31 31 31 32 34 37 39 41 45 47 48 48 47 50 50 44 44 48 50 54 53 49 48 49 49 51 52 51 54 58 62
25 26 26 26 27 29 31 33 33 32 31 31 32 33 35 37 40 43 45 48 49 48 47 46 48 49 44 43 46 48 51 51 48 47 48 49 50 50 49 50 54 58
27 27 28 29 29 30 32 34 35 34 32 31 33 34 37 39 43 47 48 50 50 49 48 47 46 46 43 42 44 45 46 47 47 47 48 50 51 51 49 48 50 53
27 28 29 30 31 31 32 34 36 35 33 33 35 35 37 40 45 48 49 49 49 48 49 47 44 42 40 39 38 39 41 43 46 49 49 50 52 52 51 49 48 49
25 27 28 30 30 31 32 34 33 32 33 35 36 36 38 41 44 46 47 46 45 45 45 46 43 39 36 35 35 35 38 40 44 48 48 48 49 52 52 52 50 48
25 25 27 28 29 29 31 31 30 29 33 36 37 38 39 41 42 42 42 42 42 42 42 42 39 36 34 33 35 36 37 39 41 44 46 46 47 49 51 52 53 51
25 23 24 26 27 27 28 28 28 30 33 35 37 38 40 40 40 40 40 40 39 39 38 38 36 34 32 32 34 36 37 38 38 39 42 45 47 49 50 49 51 53
26 23 22 23 25 27 27 28 30 32 34 35 36 39 40 39 39 39 39 38 37 37 36 36 36 35 33 32 32 34 37 39 38 37 39 42 46 49 49 46 46 50
30 25 22 23 25 28 30 30 31 32 34 35 37 39 40 39 38 39 39 39 39 40 39 39 39 38 36 33 32 32 35 37 38 38 38 40 43 47 47 45 41 43
32 27 24 24 26 29 31 31 32 34 36 37 39 40 39 39 39 41 42 43 43 43 44 44 43 41 39 36 34 32 33 35 36 38 38 39 43 45 46 45 39 38
33 30 27 25 27 30 31 32 33 36 37 38 39 40 39 40 42 44 45 45 46 47 47 48 47 46 44 41 37 33 32 33 35 38 41 43 45 46 47 46 40 37
35 32 31 28 29 31 31 32 34 36 37 38 40 41 41 42 44 45 46 46 48 50 50 51 51 51 51 48 43 38 34 34 37 42 47 46 45 46 46 44 39 38
36 33 32 31 30 31 31 33 35 36 38 39 41 42 43 43 44 46 47 48 51 52 53 53 54 54 56 54 51 45 42 43 46 50 52 48 44 44 42 38 36 40
35 33 32 31 31 31 32 34 35 37 39 40 41 43 44 45 46 47 49 51 53 54 55 57 56 57 57 58 58 54 51 53 53 54 56 49 43 42 38 32 34 44
33 32 31 32 33 34 34 35 36 38 40 41 43 44 45 47 48 49 51 53 54 56 58 59 58 56 55 57 60 59 57 55 52 52 55 49 42 41 37 33 38 48
32 32 31 32 34 36 35 36 37 39 41 43 44 45 46 49 50 51 52 53 55 58 60 59 56 55 53 55 58 58 56 54 50 48 51 49 45 44 41 39 44 50
32 31 31 33 34 35 35 36 39 41 44 45 45 46 48 50 51 52 52 54 57 59 58 56 55 55 56 56 56 55 54 55 52 47 46 48 48 46 43 43 48 52
32 32 32 33 34 34 35 37 41 44 46 46 46 47 49 52 53 53 53 56 58 59 58 57 57 58 59 58 56 53 52 55 53 46 43 46 48 47 44 44 49 52
34 33 33 34 35 35 36 39 43 45 46 46 48 49 51 53 53 52 55 57 58 58 60 62 61 61 61 60 58 54 50 51 50 46 43 45 49 50 46 45 49 53
35 35 36 37 38 38 39 41 44 46 47 47 49 51 54 54 54 55 56 57 56 57 61 64 64 63 61 60 59 55 52 54 54 48 45 46 51 52 48 47 52 56
34 37 40 41 43 42 41 43 45 47 48 49 51 54 54 55 56 57 57 55 55 58 61 63 64 63 60 58 56 54 57 64 63 55 48 47 51 54 51 51 58 62
33 38 41 44 45 44 44 45 47 48 50 51 54 55 56 56 58 58 56 56 57 59 60 62 63 61 59 57 56 58 63 67 64 58 54 52 53 54 52 54 61 67
34 37 41 44 46 47 46 47 48 50 52 54 56 57 58 59 59 58 57 58 60 61 62 63 62 60 58 57 58 61 65 65 62 59 57 55 56 54 52 55 62 68
35 37 39 43 47 49 49 49 50 51 54 56 57 57 58 59 58 57 59 60 62 63 63 63 61 59 57 57 59 61 62 61 62 60 58 58 57 55 53 56 62 68
37 38 40 44 48 51 51 50 51 53 56 57 57 57 58 57 56 58 61 62 64 65 65 64 62 59 58 58 57 58 58 59 59 58 56 57 56 54 53 57 64 71
38 40 42 45 48 50 50 50 52 55 56 57 57 57 57 56 57 59 61 63 65 66 66 65 62 60 59 56 54 55 55 54 54 51 51 53 54 52 55 62 68 71

ECMWFNIL_prec_cthk_036.txt.gz
RH
25 23 22 21 20 20 21 23 27 31 32 32 32 33 33 31 32 37 39 41 42 44 45 45 46 46 43 39 38 38 37 38 39 40 42 43 41 40 40 41 43 47
26 24 24 23 24 24 24 26 29 32 33 34 34 33 34 34 36 39 41 43 45 45 45 45 45 45 42 38 35 34 36 37 39 40 40 40 40 40 41 42 42 44
28 26 25 25 25 26 27 29 31 33 34 35 35 35 36 39 41 42 43 45 46 45 43 42 42 42 40 38 35 32 33 35 37 37 38 37 39 40 42 45 45 43
30 27 26 26 26 28 30 31 33 34 35 37 36 36 37 41 43 44 44 45 46 43 40 40 40 39 38 36 34 32 32 34 35 37 38 38 38 40 42 45 46 45
32 30 28 27 28 30 31 32 34 35 37 37 37 36 37 40 43 44 45 44 43 41 40 39 39 38 37 36 34 33 32 34 36 38 39 39 39 39 42 44 46 47
33 31 28 27 28 30 32 33 33 34 36 37 36 35 37 39 42 43 43 42 40 40 40 39 38 37 38 37 34 32 32 34 36 37 38 39 39 40 41 43 46 48
31 30 28 27 27 28 30 31 31 33 35 35 33 35 37 39 41 42 41 40 39 39 39 38 37 37 38 39 37 34 34 35 36 38 39 39 39 41 43 44 45 47
30 30 28 27 27 27 29 30 30 31 32 32 33 35 36 38 40 40 40 40 39 39 38 38 38 37 39 40 40 37 35 36 36 37 39 40 39 42 46 47 47 47
30 30 29 28 27 26 27 28 27 28 29 31 33 35 35 38 39 40 40 40 41 42 41 40 41 41 40 41 42 41 37 35 35 36 39 41 41 45 47 46 45 47
29 30 30 30 28 26 26 26 27 28 30 31 33 34 35 37 38 38 40 42 44 45 45 46 45 43 42 42 43 42 39 35 33 34 36 38 40 46 48 44 43 45
31 31 31 31 29 26 26 27 28 30 31 31 33 35 36 37 37 39 43 44 46 47 48 49 48 46 47 48 46 45 42 39 35 34 34 38 41 43 44 45 44 44
32 31 30 30 29 27 27 28 30 31 31 32 34 35 37 38 39 42 44 45 47 49 51 51 51 53 54 53 52 50 49 48 45 40 39 43 46 45 47 47 42 41
33 31 30 29 28 27 27 28 30 31 31 32 34 35 37 40 42 43 44 45 48 51 52 53 55 57 58 58 57 56 55 56 55 52 48 47 47 48 50 45 36 36
32 31 29 28 28 29 29 30 31 31 31 32 33 36 39 41 41 42 44 47 51 52 53 54 56 58 59 59 60 60 59 60 61 61 59 54 46 46 48 43 34 32
31 31 30 29 29 30 31 32 31 31 31 33 35 37 39 40 41 43 46 49 51 52 53 54 56 57 59 59 60 61 61 61 61 60 61 60 51 46 47 45 36 31
31 30 30 30 30 30 32 32 31 31 33 35 37 39 40 41 43 46 48 49 50 51 52 53 55 56 58 58 59 60 59 58 57 55 57 62 57 49 47 47 42 37
31 30 30 29 29 30 31 31 31 33 35 37 38 39 42 45 46 47 48 49 50 52 52 52 54 55 56 56 56 57 56 56 55 53 53 58 59 54 50 48 47 46
32 32 30 29 30 30 30 31 33 36 39 39 39 41 44 47 48 48 49 50 51 51 51 52 53 54 55 55 55 55 55 56 56 53 52 55 57 55 51 47 47 48
33 33 31 29 30 30 32 34 36 38 40 41 41 42 45 47 48 49 50 51 51 50 50 51 53 54 55 56 55 56 57 57 56 54 53 55 56 54 51 47 45 45
34 34 32 30 30 32 35 36 38 39 41 41 43 44 45 47 48 48 50 51 50 50 51 52 53 54 56 57 57 58 59 59 58 55 53 55 57 56 53 50 46 43
35 34 32 31 32 34 36 37 38 41 42 43 44 45 46 47 47 48 50 51 51 51 52 52 54 56 58 60 60 61 61 60 59 57 55 58 61 58 55 54 50 44
34 35 34 33 34 36 37 37 39 42 43 44 45 46 46 47 48 50 52 52 52 53 54 54 56 57 60 62 63 64 63 62 61 59 57 59 62 60 58 58 55 50
35 36 36 35 35 36 37 38 40 42 43 44 45 46 47 47 49 51 52 52 53 54 55 55 57 59 62 65 66 66 65 64 63 61 58 58 60 61 60 59 58 54
36 37 37 37 36 35 36 39 41 43 43 43 45 46 46 48 50 52 53 53 54 55 55 55 57 60 63 65 66 66 66 66 64 61 57 57 59 60 59 59 60 57
37 38 39 38 36 34 36 40 42 43 44 45 46 47 47 49 51 54 55 54 55 56 55 55 57 61 63 63 65 67 67 66 63 60 57 56 59 60 60 60 59 56
37 38 39 39 37 36 37 41 42 43 45 47 48 48 50 51 53 56 56 56 57 56 54 56 60 62 62 62 64 66 67 65 61 58 57 57 60 61 61 60 57 54

ECMWFNIL_prec_cthk_042.txt.gz
RH
24 23 22 21 20 20 20 20 20 19 18 19 19 21 26 31 33 34 34 32 32 35 39 43 45 47 47 45 43 42 41 40 39 38 38 38 38 38 38 38 39 42
27 26 24 22 22 22 21 20 20 19 18 18 19 21 26 30 31 33 33 32 32 36 39 42 45 46 45 42 41 40 40 40 38 37 38 38 38 38 39 39 40 41
27 28 28 25 23 22 22 21 21 21 20 20 20 22 25 29 30 32 33 32 33 37 40 42 44 44 43 41 40 40 41 40 38 37 37 37 37 37 38 39 40 41
27 28 29 29 27 25 24 24 24 24 23 22 22 24 26 28 29 31 33 32 34 38 41 42 43 42 41 41 40 40 41 41 39 38 37 37 37 37 38 39 40 41
26 27 29 30 30 29 28 26 26 27 26 25 24 25 27 28 29 31 32 33 35 39 41 42 42 41 41 41 41 40 41 42 42 41 39 38 37 38 39 39 40 41
28 29 29 30 32 32 32 29 28 29 29 28 27 27 29 29 30 31 33 35 37 40 41 42 42 42 41 41 40 40 41 42 44 45 43 41 39 39 40 41 40 40
30 31 31 31 32 32 33 32 31 31 31 31 30 30 30 31 30 31 34 37 39 40 40 41 42 42 41 40 39 39 41 42 44 46 46 44 43 41 40 41 42 41
30 31 32 33 32 31 32 33 33 33 33 33 34 34 33 32 31 30 34 38 39 39 39 40 43 43 42 41 40 39 41 42 44 46 46 46 46 44 43 43 44 43
31 31 32 33 32 30 29 31 33 34 34 34 35 36 35 33 32 31 34 38 39 39 38 40 43 43 42 41 40 40 41 42 44 45 45 46 46 45 45 46 46 45
32 31 31 31 32 30 29 30 32 34 35 34 35 35 35 33 32 33 35 38 40 38 39 41 43 43 42 41 41 41 42 42 44 44 45 46 47 47 47 49 49 48
33 31 30 30 31 31 31 31 32 33 33 32 32 33 35 35 34 34 36 38 39 38 38 40 42 43 42 41 41 42 42 43 43 43 44 46 47 48 49 50 52 52
33 32 30 30 30 31 32 32 31 31 30 30 29 30 33 34 34 34 36 37 38 38 38 39 41 43 42 41 41 42 42 42 42 42 43 45 48 49 50 50 51 53
33 32 31 31 31 31 31 31 31 31 30 30 29 28 30 31 31 32 34 35 36 36 36 37 40 41 42 42 42 43 42 42 41 41 43 46 50 52 53 53 54 56
34 34 34 33 32 32 31 31 32 32 32 31 30 29 29 28 27 29 30 31 33 35 35 36 38 40 41 42 43 44 43 42 42 43 46 50 53 56 58 60 61 62
36 37 37 36 36 34 32 31 31 32 32 32 30 30 28 27 26 26 27 28 30 33 34 34 37 39 40 42 44 45 44 43 44 47 51 54 57 58 60 63 66 67
38 39 39 38 38 36 35 34 32 31 31 30 30 31 29 28 27 26 26 26 28 31 33 33 36 38 40 42 45 46 45 44 46 50 55 58 59 59 61 65 68 69
38 39 39 39 38 37 37 36 35 33 31 29 29 29 30 30 28 27 26 26 28 29 31 33 35 38 39 42 45 46 46 46 47 52 55 57 58 60 63 66 68 68
38 38 40 39 38 37 37 36 37 35 34 32 30 29 29 30 28 26 26 27 28 28 29 32 34 36 39 42 44 46 48 48 49 52 54 55 57 60 63 65 65 67
39 39 39 39 38 38 38 38 37 36 36 35 34 31 30 29 27 26 27 27 27 26 27 31 34 36 38 41 43 46 48 49 50 51 51 51 55 59 61 61 61 65
41 40 38 39 39 40 40 39 38 37 37 37 37 35 33 30 27 26 26 27 26 26 27 30 32 34 37 40 42 45 48 50 50 49 48 48 52 56 57 59 61 64
42 41 39 39 41 42 42 40 39 39 39 39 39 38 37 34 30 27 26 25 25 26 27 29 31 32 35 39 41 43 47 49 48 47 47 48 52 55 57 60 64 66
41 41 41 42 43 44 43 42 41 41 40 41 41 40 39 38 34 31 27 25 25 27 27 28 29 31 34 38 41 44 47 48 47 47 48 50 53 57 60 63 65 66
41 42 42 43 45 45 44 43 43 44 43 43 43 42 42 41 39 37 34 30 28 27 27 28 29 31 34 38 40 44 47 48 47 47 49 51 54 58 61 63 65 66
42 42 43 43 44 44 43 44 45 46 46 46 45 44 43 43 42 41 40 36 32 28 28 29 30 31 35 38 41 44 46 47 48 48 50 52 54 58 61 62 63 64
43 44 45 46 46 46 46 47 48 49 49 50 48 46 45 44 44 43 43 41 37 33 31 32 32 33 35 38 42 45 46 48 49 49 51 53 55 57 60 61 61 61
42 43 44 45 46 46 47 48 49 50 52 52 51 49 48 46 45 44 43 43 42 40 37 35 35 35 36 39 44 45 47 50 51 50 53 55 55 57 59 60 60 60

ECMWFNIL_prec_cthk_045.txt.gz
RH
22 22 21 20 20 19 19 18 18 19 20 20 20 20 20 21 27 34 35 33 32 28 27 31 36 39 41 41 42 44 43 42 42 43 43 42 40 40 39 39 38 40
23 23 22 21 20 20 20 19 19 19 19 19 20 20 20 20 24 31 34 33 31 28 27 30 34 38 39 39 40 42 42 42 42 43 44 43 41 40 40 40 39 39
24 25 24 23 21 21 21 21 21 20 19 19 19 19 19 19 22 28 33 32 30 29 28 30 33 37 38 38 39 41 41 41 42 43 44 43 40 38 37 38 39 38
26 26 26 26 24 23 22 22 22 21 21 20 20 20 20 20 21 26 31 30 28 28 30 31 33 35 37 37 39 41 41 41 42 43 45 44 40 37 37 38 38 37
27 26 27 27 28 27 26 24 23 22 22 22 21 21 21 22 23 26 29 29 27 28 31 33 33 34 36 37 39 42 41 41 42 43 45 44 41 38 37 37 38 38
26 26 27 28 29 29 29 28 26 24 23 23 23 23 22 24 25 26 28 28 27 28 32 35 34 34 36 37 39 41 41 41 42 43 45 45 43 41 39 38 38 38
27 26 26 27 27 29 30 31 30 28 26 25 26 26 25 25 26 27 29 28 27 28 33 37 36 34 36 37 39 40 40 41 42 43 45 45 45 44 41 40 39 40
31 30 29 29 29 30 31 32 33 32 31 29 29 28 28 28 27 27 29 29 27 27 32 37 36 35 37 39 40 41 41 41 42 43 44 43 44 45 44 43 43 43
36 35 34 33 32 31 32 33 33 33 32 32 31 30 30 30 29 29 31 30 28 27 30 36 36 35 37 39 40 41 42 41 42 42 43 43 43 44 43 44 45 46
37 37 35 33 32 31 31 32 32 31 30 31 31 31 31 31 31 32 33 32 30 28 29 34 36 36 37 38 39 41 42 43 43 43 43 43 42 42 42 42 44 46
37 37 34 32 31 30 30 31 32 30 28 28 29 30 30 31 31 32 33 33 32 29 29 34 36 36 37 38 39 39 41 42 44 45 44 43 42 41 40 40 43 46
37 36 33 32 31 29 29 30 30 29 27 26 26 26 27 27 27 28 30 32 31 30 29 32 35 36 36 37 38 39 40 42 44 45 45 44 43 41 38 38 41 44
37 36 34 32 32 31 30 29 29 28 28 28 28 27 27 27 26 27 28 29 29 28 28 30 33 34 36 37 38 38 38 40 43 45 45 44 43 41 38 38 40 43
37 37 35 35 34 33 32 31 30 29 28 28 28 28 28 27 27 27 27 28 28 27 27 29 30 32 35 36 36 37 37 38 41 44 45 44 43 40 38 38 40 44
38 38 37 36 35 34 34 33 33 32 31 29 28 27 27 27 27 28 28 28 28 27 26 27 27 30 33 35 36 37 37 37 39 42 43 43 42 40 39 41 43 48
39 40 38 37 36 36 35 35 34 34 33 32 31 30 29 28 26 26 27 29 30 29 27 26 25 27 31 34 35 36 36 36 37 39 42 42 42 42 42 44 48 52
41 41 40 39 37 37 37 37 36 35 34 34 33 33 32 30 28 26 26 27 30 30 29 27 25 25 29 32 33 35 36 36 36 38 40 41 42 42 43 47 52 54
41 42 42 40 39 38 38 39 39 38 36 35 34 34 34 32 31 30 28 28 28 29 29 28 26 25 27 30 32 34 35 36 35 37 39 41 42 42 44 50 53 53
42 42 42 41 40 39 39 40 40 39 37 36 36 36 35 34 33 32 31 30 29 27 27 27 26 26 27 28 30 32 34 35 35 36 38 41 41 41 45 50 52 53
43 43 43 42 42 42 42 41 40 39 39 39 39 38 37 36 35 35 34 32 31 29 27 26 26 27 28 29 30 32 33 34 35 35 37 40 40 41 44 49 52 53
44 44 44 44 44 44 44 43 42 41 40 40 41 40 39 38 37 37 36 34 33 32 30 26 25 26 28 29 30 31 33 34 34 34 36 38 40 41 44 49 52 54
46 47 47 46 46 46 45 45 44 42 41 41 42 42 41 39 38 38 38 37 36 34 32 29 27 26 28 30 32 33 34 34 33 33 35 37 39 41 45 48 52 54
48 48 48 48 48 46 45 45 45 44 43 43 43 42 41 41 40 40 39 39 38 37 35 33 31 30 29 30 34 36 35 35 34 33 34 37 40 42 45 48 52 54
46 46 46 46 45 44 43 43 44 44 44 44 43 42 42 42 42 42 42 41 40 39 37 35 34 33 30 29 32 35 36 36 35 35 36 38 41 44 46 49 52 55
44 45 43 41 41 41 41 42 42 43 44 44 44 44 43 43 43 44 43 42 41 41 41 39 37 35 32 29 30 32 35 36 38 38 38 40 43 46 48 50 52 55
44 44 42 41 41 41 41 42 43 43 45 45 46 46 45 46 46 45 44 44 43 43 42 42 41 38 35 32 31 31 32 35 38 38 38 41 46 48 48 50 53 56

ECMWFNIL_prec_cthk_048.txt.gz
RH
17 17 18 18 18 19 18 18 18 19 20 20 21 20 20 20 20 24 29 30 31 31 28 27 30 33 34 36 38 40 41 41 44 50 48 41 38 35 33 32 33 36
16 17 18 18 18 18 18 18 18 18 18 19 20 20 20 20 19 20 25 29 30 30 29 27 28 32 33 34 36 37 39 41 43 50 50 44 40 37 34 32 33 32
17 17 18 18 18 19 19 19 19 18 18 18 19 19 19 19 19 19 21 25 29 30 30 27 27 30 32 33 34 34 37 40 42 48 51 46 41 38 36 35 36 34
18 19 21 20 20 22 21 20 19 18 19 19 18 19 19 19 19 18 18 22 27 30 30 28 27 29 31 32 33 34 36 38 40 46 50 48 43 40 38 37 38 37
21 22 23 23 23 25 25 23 21 20 20 19 19 19 19 19 18 18 18 19 24 29 30 28 27 29 31 32 33 35 36 37 39 43 47 48 45 41 39 37 36 36
24 25 25 26 26 27 27 26 25 24 23 21 21 20 20 19 19 19 19 19 22 27 29 29 27 29 31 32 33 35 37 38 39 40 42 46 45 42 40 37 35 34
25 26 27 27 27 27 27 28 27 27 27 26 24 23 21 20 19 19 19 21 23 26 29 29 28 29 31 33 33 35 36 37 39 39 40 44 45 43 41 38 35 33
26 25 25 25 25 25 26 26 26 27 27 28 28 27 25 23 22 20 20 22 23 25 28 30 28 28 31 33 34 35 36 37 38 38 39 42 43 42 41 40 36 33
26 24 23 23 24 24 24 25 24 25 25 25 26 28 28 27 26 24 22 22 23 25 28 30 29 28 30 32 34 35 36 37 38 39 40 41 42 42 41 40 37 35
29 26 25 25 26 26 25 25 24 25 25 24 25 26 28 29 29 29 27 25 24 25 27 30 30 29 29 32 34 35 36 37 38 39 40 42 42 41 40 39 38 37
33 31 31 31 31 29 28 27 27 27 27 27 26 26 27 28 29 30 30 28 27 26 27 29 31 30 28 30 33 35 36 37 37 39 40 42 43 41 40 39 38 38
36 35 35 35 34 33 32 31 29 28 28 27 27 26 25 25 26 28 28 28 29 28 28 29 30 30 29 29 32 35 36 37 38 38 40 42 43 42 41 39 38 38
35 34 35 35 34 34 34 33 31 28 27 27 27 26 24 24 24 25 26 27 27 27 27 27 29 30 29 29 30 33 34 36 38 38 39 41 43 43 42 40 38 38
34 34 34 35 35 34 34 34 32 30 28 27 26 26 25 25 26 26 27 27 26 25 25 25 26 28 29 28 29 31 33 35 36 38 39 40 41 42 43 42 39 38
34 34 35 36 36 35 34 34 33 32 31 30 28 27 26 26 26 27 27 27 27 26 25 24 24 26 27 28 28 29 31 34 35 36 39 40 41 41 42 42 41 40
35 34 35 36 36 35 34 34 34 34 33 32 31 30 29 29 27 27 26 25 26 26 26 25 25 25 25 26 28 28 30 32 34 35 37 38 40 41 41 42 41 40
36 34 35 36 36 35 34 34 35 35 34 33 33 32 31 32 30 29 28 26 25 25 25 25 25 26 25 25 26 26 28 30 32 33 35 37 38 39 40 41 41 40
36 36 35 36 36 36 35 35 35 36 35 34 33 33 33 33 32 31 31 31 29 27 25 23 23 25 26 26 26 26 27 30 32 33 34 35 37 38 39 40 41 40
37 37 36 36 36 37 38 38 38 37 36 35 34 34 34 34 33 33 33 32 32 31 29 26 24 23 25 26 28 29 29 31 33 34 35 35 35 36 38 38 39 39
39 38 37 38 38 40 41 42 41 41 39 39 39 38 37 35 35 35 34 33 33 33 32 31 29 27 25 25 26 29 31 32 34 36 37 37 35 35 36 37 37 37
37 37 38 40 42 42 43 43 44 44 43 42 42 41 39 39 38 37 35 35 35 35 35 33 33 32 30 28 26 27 29 32 34 35 37 36 34 34 35 36 36 36
35 37 40 43 44 44 44 44 44 44 44 44 44 43 42 41 40 39 37 37 38 39 38 35 35 36 34 33 31 28 28 31 32 33 33 33 33 32 33 35 37 37
36 39 43 44 44 44 44 43 43 43 44 45 45 45 44 43 41 40 40 39 40 41 39 36 37 39 37 36 35 33 31 31 32 32 32 31 30 30 32 34 35 35
37 40 42 43 42 42 43 44 44 45 46 46 46 46 45 45 44 43 43 41 41 42 40 39 40 42 40 38 38 36 35 34 34 34 34 31 30 29 30 33 34 34
39 39 39 40 40 41 43 45 46 47 48 47 47 47 46 45 46 45 44 44 44 44 45 45 45 45 44 42 40 40 38 37 36 36 35 33 32 31 32 34 37 36
38 38 38 38 39 41 44 46 46 47 46 44 44 45 46 46 46 46 46 47 47 49 50 49 48 48 48 46 44 43 43 42 40 38 35 33 32 32 34 38 40 39